星链-3701 (STARLINK-3701 )

导读 | 星芒AI

STARLINK-3701 是 SpaceX Starlink 项目中的一颗低轨通信卫星,属于第三代星链卫星(v1.5)。该卫星于2023年发射,旨在为全球提供高速、低延迟的互联网服务。它运行在约540公里的近地轨道,配备先进相控阵天线和激光通信系统,以提升网络效率和覆盖范围。STARLINK-3701 与其他星链卫星协同工作,支持偏远地区的宽带接入,并增强整体星座的冗余与稳定性。

基本信息
目录编号:
52095
目录名称:
STARLINK-3701
国际标识:
2022-029H
轨道中心:
EARTH
卫星名称:
星链-3701
卫星全名:
星链-3701 (STARLINK-3701 )
卫星状态:
在轨 (已飞行1326 天)
发射日期:
2022-03-19 UTC
国别 :
美国 (US)
星等 :
--
轨道信息
数据来源 国际轨道数据
星历时间: 2025-11-04T14:33:49+0800
12小时前
查看轨道信息
半长轴: 6917.793km
偏心率: 0.0001483
轨道倾角: 53.218°
近地点辐角 94.902°
升交点赤经 292.136°
平近点角 265.214°
近地点: 538.632km
远地点: 540.684km
周期: 95.436分钟
每日圈数: 15.088688
详细信息
固有亮度:
5
最大亮度:
2.5
卫星平台:
Starlink v1.5
覆盖范围:
全球
运营商:
太空探索技术公司
运营商所在国:
美国
制造商(研发单位):
太空探索技术公司
制造商所在国:
美国
使用方式:
暂无
卫星简介
星链(Starlink)计划是由太空探索技术公司(SpaceX)提出的一个巨型低轨卫星互联网星座项目,计划在2019年至2024年间在太空搭建由约1.2万颗卫星组成的“星链”网络,其中1584颗将部署在地球上空550千米处的近地轨道,并从2020年开始工作。该卫星仍在工作。
2D轨道图
3D轨道图
轨道高度分析图
轨道倾角分析图
轨道综合分析图
查看轨道综合分析图